Weather History for Broken Bow, NE

Change the Weather History Date:

Saturday, February 23, 2013

  Actual Average Record
Temperature  
Mean Temperature 19 °F 30 °F  
Max Temperature 35 °F 43 °F 78 °F (1896)
Min Temperature 2 °F 17 °F -20 °F (1914)
Degree Days  
Heating Degree Days 46 35  
Month to date heating degree days 817 867  
Cooling Degree Days 0 0  
Month to date cooling degree days 0 0  
Year to date cooling degree days 0 0  
Moisture  
Dew Point 15 °F    
Average Humidity 80    
Maximum Humidity 100    
Minimum Humidity 59    
Precipitation  
Precipitation 0.00 in 0.03 in 0.54 in (1999)
Sea Level Pressure  
Sea Level Pressure 29.87 in    
Wind  
Wind Speed 4 mph (SW)    
Max Wind Speed 40 mph    
Max Gust Speed 81 mph    
Visibility 7 miles    
Events      
T = Trace of Precipitation, MM = Missing Value Source: NWS Daily Summary

Daily Weather History Graph

Daily Weather History Graph

Search for Another Location

Airport:

Trip Planner

Search our weather history database for the weather conditions in past years. The results will help you decide how hot, cold, wet, or windy it might be!

Date:

Astronomy

Feb. 23, 2013 Rise Set
Actual Time 7:21 AM CST 6:22 PM CST
Civil Twilight 6:53 AM CST 6:50 PM CST
Nautical Twilight 6:21 AM CST 7:22 PM CST
Astronomical Twilight 5:49 AM CST 7:54 PM CST
Moon 4:33 PM CST (2/23) 5:46 AM CST (2/23)
Length of Visible Light 11h 56m
Length of Day
11h 00m
Waxing Gibbous, 95% of the Moon is Illuminated
Feb 23
Waxing Gibbous
Feb 25
Full
Mar 4
Last Quarter
Mar 11
New
Mar 19
First Quarter

Hourly Weather History & Observations

Time (CST) Temp. Windchill Dew Point Humidity Pressure Visibility Wind Dir Wind Speed Gust Speed Precip Events Conditions
12:05 AM 3.2 °F - 1.4 °F 92% 29.90 in 1.8 mi Calm Calm - N/A   Clear
12:13 AM 3.2 °F - -0.4 °F 85% 29.89 in 3.0 mi Calm Calm - N/A   Clear
12:53 AM 12.0 °F - 10.0 °F 92% 30.00 in 9.0 mi Calm Calm - N/A   Clear
1:53 AM 10.9 °F - 8.1 °F 88% 29.98 in 8.0 mi Calm Calm - N/A   Clear
2:53 AM 9.0 °F - 8.1 °F 96% 29.97 in 7.0 mi Calm Calm - N/A   Clear
3:33 AM 12.2 °F 4.3 °F 8.6 °F 85% 29.82 in 6.0 mi Variable 4.6 mph 80.6 mph N/A   Clear
3:41 AM 12.2 °F -4.8 °F 8.6 °F 85% 29.82 in 6.0 mi SSW 17.3 mph 28.8 mph N/A   Clear
3:53 AM 9.0 °F - 8.1 °F 96% 29.94 in 5.0 mi Calm Calm - N/A   Clear
4:53 AM 10.9 °F 1.4 °F 8.1 °F 88% 29.93 in 5.0 mi West 5.8 mph - N/A   Clear
5:53 AM 17.1 °F 6.6 °F 12.0 °F 81% 29.91 in 8.0 mi West 8.1 mph - N/A   Clear
6:53 AM 10.9 °F - 8.1 °F 88% 29.93 in 6.0 mi Calm Calm - N/A   Clear
7:53 AM 10.9 °F - 7.0 °F 84% 29.93 in 5.0 mi Calm Calm - N/A   Clear
8:53 AM 14.0 °F - 10.9 °F 88% 29.93 in 6.0 mi Calm Calm - N/A   Clear
9:53 AM 19.0 °F 11.1 °F 15.1 °F 85% 29.93 in 7.0 mi SW 5.8 mph - N/A   Clear
10:53 AM 25.0 °F 16.3 °F 17.1 °F 72% 29.90 in 10.0 mi WSW 8.1 mph - N/A   Clear
11:53 AM 28.9 °F 20.4 °F 18.0 °F 64% 29.88 in 10.0 mi WSW 9.2 mph - N/A   Clear
12:53 PM 30.0 °F 21.1 °F 19.0 °F 64% 29.85 in 10.0 mi WSW 10.4 mph - N/A   Clear
1:53 PM 32.0 °F 24.2 °F 19.9 °F 61% 29.83 in 10.0 mi SW 9.2 mph - N/A   Clear
2:53 PM 34.0 °F 27.2 °F 21.0 °F 59% 29.81 in 10.0 mi SW 8.1 mph - N/A   Clear
3:53 PM 35.1 °F 30.1 °F 24.1 °F 64% 29.80 in 10.0 mi SW 5.8 mph - N/A   Clear
4:53 PM 32.0 °F 25.6 °F 23.0 °F 69% 29.79 in 8.0 mi SSW 6.9 mph - N/A   Clear
5:53 PM 30.0 °F 26.5 °F 23.0 °F 75% 29.78 in 7.0 mi SSE 3.5 mph - N/A   Clear
6:53 PM 27.0 °F 20.5 °F 21.9 °F 81% 29.83 in 9.0 mi South 5.8 mph - N/A   Clear
7:53 PM 23.0 °F - 21.0 °F 92% 29.85 in 7.0 mi Calm Calm - N/A   Clear
8:53 PM 23.0 °F - 21.0 °F 92% 29.85 in 7.0 mi Calm Calm - N/A   Scattered Clouds
9:53 PM 24.1 °F - 21.0 °F 88% 29.85 in 7.0 mi Calm Calm - N/A   Scattered Clouds
10:53 PM 23.0 °F - 21.0 °F 92% 29.83 in 6.0 mi Calm Calm - N/A   Clear
11:53 PM 19.9 °F - 19.9 °F 100% 29.84 in 3.0 mi Calm Calm - N/A   Clear
11:58 PM 17.6 °F - 17.6 °F 100% 29.75 in 1.0 mi Calm Calm - N/A   Clear